Location: Unspecified
(52.4292°N, 19.3359°E)
Time: 23:14:07
(UTC+02:00)

Altair - Pass Details

Date: 28 May 2024
Orbit: 1502 x 1682 km, 47.2° (Epoch: 19 June)

Event Time Altitude Azimuth Distance (km) Brightness Sun altitude
Rises 09:43:41 0° 229° (SW) 4,783 9.9 44.3°
Reaches altitude 10° 09:46:52 10° 224° (SW) 3,824 9.6 44.8°
Maximum altitude 09:56:06 49° 153° (SSE) 2,043 9.7 46.0°
Drops below altitude 10° 10:05:37 10° 83° (E) 3,938 10.3 47.3°
Sets 10:08:56 0° 79° (E) 4,936 10.6 47.7°
